Location: Newark
(11.2914°S, 14.4718°E)
Time: 20:07:48
(UTC+00:00)

Tiros 1 despin weight - Pass Details

Date: 20 September 2019
Orbit: 594 x 643 km, 48.2° (Epoch: 16 October)

Event Time Altitude Azimuth Distance (km) Brightness Sun altitude
Rises 07:03:24 0° 211° (SSW) 2,952 ? 31.0°
Reaches altitude 10° 07:05:50 10° 205° (SSW) 2,038 ? 31.5°
Maximum altitude 07:10:21 46° 132° (SE) 860 ? 32.6°
Drops below altitude 10° 07:14:48 10° 58° (ENE) 2,012 ? 33.7°
Sets 07:17:11 0° 52° (NE) 2,909 ? 34.3°
